[[{"header":{"parameterUnit":"m.s-1","parameterCategory":1,"la1":30.2991,"la2":30.254,"lo1":-89.0895,"lo2":-89.0444,"dy":0.0017,"dx":0.0017,"nx":28,"ny":28,"refTime":"2024-03-23T21:00:00:Z","depth":0,"parameterNumber":2,"parameterNumberName":"U-component_of_WINDS"},"data":[0,0,0,0,0,0,0,0,0,0,0,0,0,0,0,0,0,0,0,0,0,0,0,0,0,0,0,0,0,0,0,0,0,0,0,0,0,0,0,0,0,0,0,0,0,0,0,0,0,0,0,0,0,0,0,0,0,0,0.8067,0.8067,0,0.805,0.8049,0.8049,0.801,0.8009,0.8008,0.8008,0.7992,0.7992,0.7992,0,0,0,0,0,0,0,0,0,0,0,0,0,0.8069,0.8069,0.8067,0.8067,0.8066,0.805,0.8049,0.8049,0.801,0.8009,0.8008,0.8007,0.7991,0.7992,0.7992,0,0,0,0,0,0,0,0,0,0,0,0,0,0.8061,0.8069,0.8067,0.8045,0.8043,0.805,0.8049,0.8049,0.801,0.8009,0.8008,0.8007,0.7991,0.7992,0.7992,0.802,0,0,0.7994,0.7994,0,0,0,0,0,0,0,0,0.8062,0.8061,0.8048,0.8046,0.8044,0.8031,0.8044,0.8039,0.8011,0.8023,0.8007,0.8006,0.8006,0.8005,0.8004,0.8019,0.8018,0.7994,0.7994,0.7994,0.7994,0,0,0,0,0,0,0,0.8062,0.8062,0.806,0.8048,0.8046,0.8037,0.8034,0.8043,0.8021,0.8021,0.8019,0.8017,0.8004,0.8004,0.8004,0.8018,0.7994,0.7994,0.7995,0.7995,0.8057,0.8059,0,0,0,0,0,0,0.8066,0.8063,0.8061,0.8059,0.805,0.8038,0.8035,0.8036,0.8021,0.8017,0.8018,0.8015,0.8004,0.8003,0.8003,0.8036,0.7994,0.7995,0.7995,0.8056,0.8058,0.8059,0,0,0,0,0,0,0.8066,0.8066,0.8061,0.806,0.8059,0.8039,0.8041,0.8036,0.8036,0.8018,0.8015,0.8022,0.8003,0.8002,0.8016,0.8035,0.7995,0.7995,0.8054,0.8056,0.8058,0.8101,0,0,0,0,0,0,0.8066,0.8066,0.8076,0.8061,0.8059,0.8074,0.8042,0.8037,0.8037,0.8033,0.8021,0.8018,0.8002,0.8016,0.8017,0.8035,0.7996,0.8053,0.8055,0.8058,0.8098,0.8104,0.8109,0,0,0,0,0,0.8066,0.8088,0.8076,0.8076,0.807,0.8075,0.8074,0.8055,0.8038,0.8048,0.8038,0.8018,0.8033,0.8018,0.8018,0.8037,0.8051,0.8054,0.8057,0.8095,0.8103,0.8109,0,0,0,0,0,0,0.8106,0.8086,0.8072,0.809,0.8084,0.8068,0.808,0.8064,0.8063,0.806,0.8037,0.8034,0.8052,0.8046,0.8029,0.8064,0.8039,0.8042,0.8067,0.8074,0.808,0.8082,0.7996,0,0,0,0,0,0.8116,0.8121,0.8104,0.8121,0.8119,0.81,0.8101,0.8087,0.8081,0.8079,0.8069,0.8064,0.8068,0.8071,0.8073,0.8097,0.8095,0.811,0.8116,0.8121,0.8124,0.8138,0.8146,0.8069,0.8069,0.8069,0,0,0.8138,0.8128,0.8132,0.8128,0.8122,0.8129,0.8098,0.8106,0.8111,0.808,0.8093,0.8086,0.8079,0.8099,0.8107,0.8094,0.8145,0.8125,0.8129,0.8129,0.8142,0.815,0.8156,0.8071,0.8071,0.807,0,0,0.8182,0.8174,0.8188,0.8183,0.8175,0.8163,0.8167,0.8154,0.8148,0.816,0.8138,0.8144,0.815,0.8147,0.8147,0.8192,0.8175,0.8194,0.8225,0.8239,0.8245,0.825,0.8268,0.8275,0.8197,0.8197,0.8197,0,0.821,0.8219,0.8198,0.8208,0.8207,0.818,0.8195,0.8192,0.8185,0.8186,0.8171,0.8181,0.8174,0.8194,0.8205,0.8205,0.821,0.8195,0.8246,0.8251,0.8255,0.8272,0.8279,0.8199,0.8199,0.8199,0.8199,0,0.8255,0.8261,0.8274,0.8269,0.827,0.8282,0.8265,0.8269,0.8255,0.8245,0.826,0.8251,0.8252,0.8256,0.8242,0.8275,0.8267,0.825,0.8224,0.8265,0.8281,0.8287,0.8203,0.8202,0.8201,0.8201,0,0,0.8322,0.8306,0.8311,0.8309,0.8299,0.8304,0.8317,0.8317,0.8322,0.8319,0.833,0.8337,0.8322,0.8321,0.8307,0.832,0.8359,0.8301,0.8301,0.8313,0.8396,0.841,0.8418,0.8347,0.8348,0.8349,0.8397,0,0.8364,0.8383,0.8365,0.8389,0.8396,0.8371,0.8382,0.8378,0.8369,0.8375,0.8365,0.8372,0.8349,0.8349,0.8361,0.8352,0.8375,0.8348,0.8359,0.8359,0.8362,0.8425,0.8439,0.8485,0.8403,0.8404,0.8404,0,0.8415,0.8415,0.8439,0.8429,0.8431,0.8441,0.8442,0.8447,0.8443,0.8436,0.8437,0.8421,0.8434,0.8409,0.8428,0.841,0.8413,0.841,0.8411,0.8412,0.8385,0.8429,0.8498,0.8506,0.8413,0.8413,0.8412,0,0.8463,0.8469,0.8484,0.8483,0.8472,0.848,0.8476,0.8471,0.8473,0.8475,0.8476,0.8479,0.8481,0.8484,0.847,0.8453,0.8492,0.8465,0.8488,0.8488,0.8497,0.8497,0.857,0.8498,0.8498,0.8498,0.8498,0,0.8512,0.8528,0.8506,0.8516,0.8534,0.8514,0.8533,0.8527,0.8523,0.8532,0.851,0.852,0.85,0.8508,0.8497,0.8515,0.8516,0.8512,0.8509,0.8514,0.8515,0.8517,0.8514,0.85,0.8499,0.8499,0.8499,0,0.8569,0.8554,0.857,0.8559,0.8557,0.8571,0.8562,0.8571,0.8562,0.8574,0.8576,0.8562,0.857,0.8556,0.8563,0.8555,0.8582,0.8573,0.8583,0.8581,0.8605,0.8604,0.8682,0.8692,0.8613,0.8614,0.8615,0,0.8601,0.8613,0.8604,0.8608,0.8606,0.8613,0.8616,0.8598,0.8602,0.86,0.861,0.8617,0.8621,0.8636,0.8627,0.8633,0.8625,0.8652,0.8626,0.8632,0.8628,0.8628,0.863,0.8658,0.8659,0.866,0.866,0,0.8661,0.8654,0.8659,0.8662,0.8666,0.8667,0.8667,0.8672,0.8654,0.866,0.8668,0.8671,0.8679,0.8687,0.869,0.8688,0.8672,0.8669,0.8675,0.8681,0.8687,0.8686,0.8599,0.8667,0.8666,0.8666,0.8666,0.8665,0.8708,0.8718,0.8714,0.872,0.8719,0.872,0.8729,0.8721,0.8727,0.8732,0.8721,0.8733,0.8731,0.8734,0.8734,0.8744,0.8732,0.874,0.8742,0.8745,0.8749,0.8684,0.8744,0.8744,0.8744,0.8743,0.8743,0,0.8768,0.8765,0.8771,0.8772,0.8778,0.8762,0.8761,0.8768,0.8778,0.8777,0.8782,0.8793,0.8801,0.8794,0.88,0.881,0.8803,0.8813,0.8812,0.8813,0.8758,0.8753,0.8818,0.8818,0.8818,0.8818,0.8818,0.8818,0.88,0.8818,0.881,0.8828,0.8824,0.8835,0.8836,0.8838,0.8837,0.8851,0.8857,0.8852,0.8849,0.8856,0.8864,0.8861,0.8866,0.8878,0.8873,0.8823,0.8816,0.8809,0.8804,0.8879,0.8879,0.8927,0.8927,0.8928]},{"header":{"parameterUnit":"m.s-1","parameterCategory":1,"la1":30.2991,"la2":30.254,"lo1":-89.0895,"lo2":-89.0444,"dy":0.0017,"dx":0.0017,"nx":28,"ny":28,"refTime":"2024-03-23T21:00:00:Z","depth":0,"parameterNumber":3,"parameterNumberName":"V-component_of_WINDS"},"data":[0,0,0,0,0,0,0,0,0,0,0,0,0,0,0,0,0,0,0,0,0,0,0,0,0,0,0,0,0,0,0,0,0,0,0,0,0,0,0,0,0,0,0,0,0,0,0,0,0,0,0,0,0,0,0,0,0,0,-8.3123,-8.3124,0,-8.3208,-8.3209,-8.321,-8.3156,-8.3153,-8.3151,-8.3149,-8.3228,-8.3233,-8.3237,0,0,0,0,0,0,0,0,0,0,0,0,0,-8.2911,-8.2915,-8.3123,-8.3124,-8.3125,-8.3208,-8.3209,-8.321,-8.3156,-8.3153,-8.315,-8.3147,-8.3227,-8.3232,-8.3237,0,0,0,0,0,0,0,0,0,0,0,0,0,-8.3,-8.2917,-8.3123,-8.3109,-8.3108,-8.3207,-8.3209,-8.321,-8.3157,-8.3153,-8.315,-8.3146,-8.3225,-8.3232,-8.3238,-8.3354,0,0,-8.3259,-8.3261,0,0,0,0,0,0,0,0,-8.2995,-8.3008,-8.311,-8.311,-8.311,-8.3168,-8.3163,-8.3258,-8.3158,-8.3138,-8.3149,-8.3144,-8.3211,-8.3218,-8.3242,-8.3358,-8.3361,-8.3259,-8.3263,-8.3266,-8.3268,0,0,0,0,0,0,0,-8.2989,-8.3004,-8.3156,-8.3111,-8.3111,-8.3097,-8.3105,-8.3181,-8.3194,-8.314,-8.3136,-8.3147,-8.321,-8.3236,-8.3244,-8.3362,-8.3259,-8.3265,-8.3269,-8.3272,-8.3579,-8.3583,0,0,0,0,0,0,-8.2985,-8.2999,-8.3154,-8.3159,-8.3042,-8.3103,-8.3113,-8.3153,-8.3193,-8.3196,-8.315,-8.3144,-8.3226,-8.3236,-8.3246,-8.3386,-8.3266,-8.3272,-8.3276,-8.3575,-8.358,-8.3585,0,0,0,0,0,0,-8.298,-8.2999,-8.315,-8.3078,-8.3096,-8.3111,-8.3156,-8.3156,-8.3182,-8.3201,-8.3203,-8.3175,-8.3224,-8.3237,-8.3329,-8.3388,-8.3275,-8.3281,-8.357,-8.3577,-8.3582,-8.3666,0,0,0,0,0,0,-8.2974,-8.2998,-8.3043,-8.308,-8.31,-8.3233,-8.316,-8.3161,-8.3195,-8.3188,-8.3225,-8.3227,-8.3222,-8.3319,-8.3335,-8.3395,-8.3286,-8.3565,-8.3573,-8.358,-8.3658,-8.3674,-8.3688,0,0,0,0,0,-8.2967,-8.3061,-8.3045,-8.3064,-8.3157,-8.3236,-8.3248,-8.3242,-8.32,-8.3245,-8.3257,-8.3226,-8.3379,-8.3329,-8.3347,-8.3409,-8.3561,-8.3571,-8.358,-8.3651,-8.3671,-8.3688,0,0,0,0,0,0,-8.3027,-8.3065,-8.3048,-8.3157,-8.3195,-8.3227,-8.3284,-8.3263,-8.3311,-8.3302,-8.3291,-8.3299,-8.3396,-8.3411,-8.3355,-8.3525,-8.3463,-8.3476,-8.3511,-8.353,-8.3545,-8.3539,-8.3292,0,0,0,0,0,-8.3054,-8.3117,-8.3146,-8.3239,-8.3259,-8.3269,-8.3302,-8.3295,-8.3332,-8.3347,-8.3366,-8.3401,-8.3458,-8.3494,-8.3547,-8.366,-8.3667,-8.3712,-8.3727,-8.374,-8.3751,-8.3814,-8.3834,-8.3615,-8.3615,-8.3615,0,0,-8.3108,-8.3136,-8.3176,-8.3252,-8.328,-8.3344,-8.3282,-8.3351,-8.3399,-8.3356,-8.3446,-8.3461,-8.35,-8.3603,-8.365,-8.3619,-8.3814,-8.3752,-8.3761,-8.3766,-8.3826,-8.3846,-8.3865,-8.3622,-8.3621,-8.362,0,0,-8.324,-8.3268,-8.335,-8.338,-8.3425,-8.3431,-8.3451,-8.3488,-8.3498,-8.3587,-8.3558,-8.3613,-8.3709,-8.3739,-8.3767,-8.3914,-8.3887,-8.3931,-8.401,-8.4072,-8.4089,-8.4104,-8.4158,-8.4177,-8.3943,-8.3943,-8.3943,0,-8.3301,-8.3399,-8.3394,-8.3468,-8.3502,-8.347,-8.3553,-8.3582,-8.364,-8.3664,-8.3629,-8.3752,-8.3776,-8.3887,-8.3923,-8.3946,-8.3969,-8.3927,-8.4087,-8.4102,-8.4117,-8.4168,-8.4188,-8.3948,-8.3948,-8.3947,-8.3946,0,-8.3473,-8.3541,-8.3602,-8.3663,-8.3704,-8.3782,-8.3788,-8.383,-8.3819,-8.3829,-8.3921,-8.3949,-8.4008,-8.4034,-8.4022,-8.4144,-8.4124,-8.4089,-8.4027,-8.4143,-8.4191,-8.421,-8.3956,-8.3954,-8.3952,-8.3951,0,0,-8.3643,-8.3704,-8.3726,-8.3755,-8.3803,-8.3855,-8.3931,-8.3992,-8.4029,-8.407,-8.4134,-8.4218,-8.4187,-8.4219,-8.4211,-8.4265,-8.4382,-8.4223,-8.4224,-8.4252,-8.4518,-8.4545,-8.4568,-8.4364,-8.4368,-8.4371,-8.4515,0,-8.378,-8.3916,-8.3915,-8.4041,-8.4105,-8.4077,-8.4143,-8.4179,-8.4191,-8.4246,-8.4257,-8.4318,-8.4271,-8.4291,-8.4343,-8.4356,-8.4435,-8.4346,-8.4423,-8.4426,-8.4415,-8.4593,-8.4621,-8.4756,-8.4534,-8.4537,-8.4539,0,-8.3956,-8.4008,-8.4142,-8.4183,-8.421,-8.427,-8.4327,-8.438,-8.442,-8.4425,-8.4463,-8.4447,-8.4524,-8.446,-8.4566,-8.4506,-8.4537,-8.4549,-8.4554,-8.4561,-8.449,-8.4605,-8.4799,-8.4819,-8.4568,-8.4566,-8.4564,0,-8.4069,-8.4172,-8.4266,-8.4291,-8.4341,-8.4385,-8.4407,-8.4444,-8.4482,-8.4531,-8.4555,-8.4611,-8.4642,-8.4685,-8.4685,-8.4638,-8.4793,-8.4728,-8.4798,-8.4799,-8.4832,-8.483,-8.5034,-8.4851,-8.4851,-8.4851,-8.485,0,-8.4222,-8.4305,-8.4318,-8.4376,-8.4468,-8.4466,-8.4556,-8.4574,-8.4609,-8.4668,-8.4646,-8.4702,-8.4699,-8.4755,-8.4756,-8.4844,-8.4858,-8.4863,-8.4862,-8.4866,-8.4865,-8.4886,-8.4877,-8.4856,-8.4855,-8.4854,-8.4853,0,-8.4364,-8.4376,-8.4476,-8.4518,-8.453,-8.4596,-8.463,-8.4685,-8.4695,-8.4772,-8.4789,-8.4805,-8.4871,-8.4876,-8.4951,-8.4951,-8.506,-8.5048,-8.5047,-8.5045,-8.5115,-8.5109,-8.534,-8.5371,-8.5168,-8.517,-8.5171,0,-8.446,-8.4524,-8.4574,-8.4614,-8.464,-8.4705,-8.4744,-8.4744,-8.4786,-8.4839,-8.4887,-8.4951,-8.5003,-8.5109,-8.5127,-8.5184,-8.5174,-8.5252,-8.5183,-8.5185,-8.5177,-8.5174,-8.518,-8.5265,-8.5267,-8.5269,-8.527,0,-8.4632,-8.4636,-8.4694,-8.4757,-8.4805,-8.4853,-8.4898,-8.4931,-8.4937,-8.4985,-8.5054,-8.5094,-8.5173,-8.5238,-8.5295,-8.5316,-8.5295,-8.5292,-8.5312,-8.5316,-8.5314,-8.5317,-8.5084,-8.5287,-8.5285,-8.5284,-8.5283,-8.5282,-8.4755,-8.4811,-8.4856,-8.4923,-8.4958,-8.5001,-8.5055,-8.5075,-8.5133,-8.52,-8.5195,-8.5272,-8.5312,-8.5388,-8.5414,-8.5472,-8.5446,-8.5474,-8.5481,-8.5488,-8.5496,-8.5304,-8.5482,-8.5482,-8.5482,-8.5481,-8.5481,0,-8.4926,-8.4954,-8.5016,-8.5082,-8.5135,-8.5113,-8.5162,-8.5207,-8.5276,-8.5317,-8.537,-8.545,-8.5513,-8.5536,-8.5598,-8.564,-8.5632,-8.5656,-8.5653,-8.5659,-8.5516,-8.5493,-8.5662,-8.5662,-8.5662,-8.5662,-8.5662,-8.5662,-8.5021,-8.5117,-8.5126,-8.5239,-8.5266,-8.5343,-8.5373,-8.5413,-8.5446,-8.5538,-8.5591,-8.5608,-8.5641,-8.5706,-8.5762,-8.5767,-8.5791,-8.582,-8.5821,-8.5687,-8.5669,-8.5651,-8.563,-8.5825,-8.5825,-8.596,-8.5961,-8.5962]}]]